Location: Ch�teau-Arnoux
(44.0814°N, 6.0027°E)
Time: 15:24:51
(UTC+00:00)

Cosmos 2322 Rocket - Pass Details

Date: 15 November 2019
Orbit: 832 x 851 km, 71.0° (Epoch: 08 December)

Event Time Altitude Azimuth Distance (km) Brightness Sun altitude
Exits shadow 05:29:12 - 332° (NNW) 3,199 4.8 -11.2°
Reaches altitude 10° 05:31:07 10° 331° (NNW) 2,468 4.2 -10.8°
Maximum altitude 05:36:46 73° 248° (WSW) 883 2.2 -9.9°
Drops below altitude 10° 05:42:24 10° 164° (SSE) 2,464 5.1 -8.9°
Sets 05:44:51 0° 163° (SSE) 3,397 5.9 -8.5°
